User: anonymous   Login
Location: Unspecified
(0.0000°N, 0.0000°E)
Time: 19:57:11
(UTC+00:00)
Language:

I-INSPIRE II - Orbit

View from above orbital plane
View from above orbital plane
View from above satellite
View from above satellite

Ground track
Ground track

The orbit data is extracted from the following two-line orbital elements,

1 42731U 98067ML  18328.65367517  .20606057  12514-4  45736-3 0  9990
2 42731  51.6195 233.0809 0005495 228.6465 131.7518 16.46306360 85922
Epoch (UTC): 24 November 2018 15:41:17
Eccentricity: 0.0005495
inclination: 51.6195°
perigee height: 145 km
apogee height: 152 km
right ascension of ascending node: 233.0809°
argument of perigee: 228.6465°
revolutions per day: 16.46306360
mean anomaly at epoch: 131.7518°
orbit number at epoch: 8592

The dashed part of the orbit path shows where the satellite is in the earth's shadow,  

DLR